Regional Weather Roundup
Issued by NWS Little Rock, AR

Home | Current Version | Previous Version | Text Only | Print | Product List | Glossary On
Versions: 1 2 3 4 5 6 7 8 9 10 11 12 13 14 15 16 17 18 19 20 21 22 23 24 25 26 27 28 29 30 31 32 33 34 35 36 37 38 39 40 41 42 43 44 45 46 47 48 49 50
000
ASUS44 KLZK 061705
RWRLZK

WEATHER ROUNDUP FOR ARKANSAS
NATIONAL WEATHER SERVICE LITTLE ROCK AR
1200 PM CDT WED MAY 06 2015

NOTE: "FAIR" INDICATES FEW OR NO CLOUDS BELOW 12,000 FEET WITH NO
SIGNIFICANT WEATHER AND/OR OBSTRUCTIONS TO VISIBILITY.

ARZ001-003-010-029-061800-
NORTHWEST ARKANSAS

CITY           SKY/WX    TMP DP  RH WIND       PRES   REMARKS
FAYETTEVILLE   MOSUNNY   73  62  68 SE20G30   30.05F
FORT SMITH     MOSUNNY   75  54  47 SE12G21   30.02F
HARRISON       CLOUDY    72  58  61 S9        30.09F
BENTONVILLE    PTSUNNY   70  61  73 SE13G20   30.06S
ROGERS         CLOUDY    67  62  84 SE12      30.06F
SILOAM SPGS    MOSUNNY   73  57  56 S17G26    30.05S
HIGHFILL       PTSUNNY   71  60  68 SE13      30.04F
SPRINGDALE     MOSUNNY   70  63  78 SE14      30.07F
$$

ARZ004-005-016-061800-
NORTH CENTRAL ARKANSAS

CITY           SKY/WX    TMP DP  RH WIND       PRES   REMARKS
BATESVILLE     MOSUNNY   81  57  44 SE10G16   30.12S
FLIPPIN        MOSUNNY   77  57  50 S7        30.07F
MTN HOME       PTSUNNY   79  56  45 S12G22    30.09F
$$

ARZ040-041-061800-
WEST CENTRAL ARKANSAS

CITY           SKY/WX    TMP DP  RH WIND       PRES   REMARKS
MENA           PTSUNNY   77  54  44 SE8G17    30.05S
MOUNT IDA      MOSUNNY   77  58  51 S9        30.04F
$$

ARZ009-017-025-026-028-061800-
NORTHEAST ARKANSAS

CITY           SKY/WX    TMP DP  RH WIND       PRES   REMARKS
CORNING          N/A     82  55  39 S16G23    30.13F
JONESBORO      PTSUNNY   80  56  43 S13       30.12F
NEWPORT        MOSUNNY   84  57  39 S10       30.12F
WALNUT RIDGE   MOSUNNY   81  55  41 S16G23    30.12F
BLYTHEVILLE    MOSUNNY   82  56  40 S9        30.14F
$$

ARZ022-023-033-042-044-061800-
CENTRAL ARKANSAS

CITY           SKY/WX    TMP DP  RH WIND       PRES   REMARKS
LITTLE ROCK    PTSUNNY   82  56  40 SE10      30.10F
N LITTLE ROCK  PTSUNNY   79  60  51 S15G24    30.10F
JACKSONVILLE   MOSUNNY   80  58  46 S12G17    30.10F
SEARCY         MOSUNNY   82  62  50 S13       30.12F
HOT SPRINGS    MOSUNNY   78  57  48 S13G23    30.08F
RUSSELLVILLE   PTSUNNY   80  56  43 SE9G20    30.06F
CLINTON        FAIR      79  59  50 S12G17    30.11F
$$

ARZ036-061800-
EAST ARKANSAS

CITY           SKY/WX    TMP DP  RH WIND       PRES   REMARKS
WEST MEMPHIS   MOSUNNY   80  59  48 S12       30.13F
$$

ARZ050-053-066-070-073-061800-
SOUTHWEST ARKANSAS

CITY           SKY/WX    TMP DP  RH WIND       PRES   REMARKS
ARKADELPHIA    FAIR      82  63  52 SE8       30.07F
CAMDEN         MOSUNNY   81  57  44 NE14G21   30.07F
TEXARKANA      SUNNY     79  59  50 SE16      30.04S
EL DORADO      SUNNY     80  59  48 SE16G25   30.07F
DE QUEEN       PTSUNNY   79  61  53 S7        30.02S
$$

ARZ056-057-069-061800-
SOUTHEAST ARKANSAS

CITY           SKY/WX    TMP DP  RH WIND       PRES   REMARKS
PINE BLUFF     SUNNY     81  59  47 SE16G23   30.10F
STUTTGART      MOSUNNY   82  57  42 SE13G21   30.12F
MONTICELLO     MOSUNNY   79  60  52 S8G17     30.10F

$$




USA.gov is the U.S. government's official web portal to all federal, state and local government web resources and services.